Terug naar catalogus

ATLAS 5 CENTAUR DEB

LostHEO
NORAD 43953·DEBRIS·🇺🇸 United States

Gelanceerd Sep 17, 2014 vanaf Cape Canaveral Space Force Station

Loading…

Volgende Passages (komende 24 uur)

TLE

VerouderdSource: Space-Track

Epoch: Dec 10, 2022, 09:28 UTC

1 43953U 14055G   22344.39452669 -.00000098  00000-0  00000+0 0  9995
2 43953  21.6814 267.9831 4182318 311.1314  19.7238  1.86986573 29133

Volg ATLAS 5 CENTAUR DEB in realtime met AllMySat

Download on the App Store